Location: Unspecified
(0.0000°N, 0.0000°E)
Time: 04:07:25
(UTC+00:00)

N. Korean satellite - Pass Details

Date: 30 January 2021
Orbit: 451 x 502 km, 97.2° (Epoch: 07 March)

Event Time Altitude Azimuth Distance (km) Brightness Sun altitude
Rises 04:16:31 0° 43° (NE) 2,444 10.4 -27.7°
Reaches altitude 10° 04:19:26 10° 72° (ENE) 1,579 9.8 -27.0°
Maximum altitude 04:21:04 13° 101° (ESE) 1,407 9.8 -26.6°
Drops below altitude 10° 04:22:42 10° 130° (SE) 1,589 10.0 -26.2°
Sets 04:25:39 0° 159° (SSE) 2,473 10.7 -25.6°
